Regional Weather Roundup
Issued by NWS

Home | Current Version | Previous Version | Text Only | Print | Product List | Glossary Off
Versions: 1 2 3 4 5 6 7 8 9 10 11 12 13 14 15 16 17 18 19 20 21 22 23 24 25 26 27 28 29 30 31 32 33 34 35 36 37 38 39 40 41 42 43 44 45 46 47 48 49 50

000
ASUS43 KMKX 010311
RWRWI

WISCONSIN REGIONAL WEATHER ROUNDUP
NATIONAL WEATHER SERVICE MILWAUKEE/SULLIVAN WI
1000 PM CDT WED AUG 31 2016

NOTE: "FAIR" INDICATES FEW OR NO CLOUDS BELOW 12,000 FEET WITH NO
SIGNIFICANT WEATHER AND/OR OBSTRUCTIONS TO VISIBILITY.

WIZ001-002-006>008-014>016-023>028-010400-
NORTHWEST WISCONSIN

CITY           SKY/WX    TMP DP  RH WIND       PRES   REMARKS
SUPERIOR ARPT  CLEAR     60  58  95 NE5       30.22R
ASHLAND        PTCLDY    56  56 100 CALM      30.22R
HAYWARD        CLOUDY    61  56  83 NE3       30.23R
SIREN          MOCLDY    63  55  74 E3        30.21S
CUMBERLAND     PTCLDY    61  54  77 CALM      30.22R
RICE LAKE      CLOUDY    59  56  90 CALM      30.23R
CHETEK         NOT AVBL
LADYSMITH      CLOUDY    63  55  75 NE5       30.23R
EAU CLAIRE     PTCLDY    61  55  81 N5        30.19R
MENOMONIE      CLEAR     61  56  82 N5        30.20R
NEW RICHMOND   CLEAR     57  56  95 CALM      30.20S
OSCEOLA        CLEAR     58  58 100 CALM      30.23S
$$

WIZ003>005-009-010-017-018-010400-
NORTH CENTRAL WISCONSIN

CITY           SKY/WX    TMP DP  RH WIND       PRES   REMARKS
MANITOWISH WTR NOT AVBL
ARBOR VITAE    CLEAR     55  53  92 CALM      30.22S
WOODRUFF       CLEAR     55  53  92 CALM      30.22S
RHINELANDER    CLOUDY    58  54  86 CALM      30.22R
EAGLE RIVER    PTCLDY    52  52  99 N3        30.22R
LAND O LAKES   PTCLDY    56  54  91 N3        30.23R
PHILLIPS       MOCLDY    58  53  82 CALM      30.22R
TOMAHAWK       MOCLDY    53  50  91 CALM      30.22R
MEDFORD        PTCLDY    55  55 100 N3        30.21R
MERRILL        MOCLDY    57  53  87 N5        30.21R
$$

WIZ029-030-035-036-043>047-010400-
CENTRAL WISCONSIN

CITY           SKY/WX    TMP DP  RH WIND       PRES   REMARKS
WAUSAU         CLEAR     61  52  72 N3        30.18R
MOSINEE        CLEAR     61  54  77 N5        30.20R
MARSHFIELD     PTCLDY    64  52  64 NE8       30.18R
STEVENS POINT  CLEAR     58  53  83 CALM      30.19R
WAUPACA        MOCLDY    67  57  71 N3        30.16S
WAUTOMA        MOCLDY    63  57  81 N6        30.16R
WISC RAPIDS    CLEAR     63  55  75 NE8       30.19R
CAMP DOUGLAS   PTCLDY    54  52  94 W5        30.16R
$$

WIZ011>013-019>022-031-037>040-048>050-010400-
NORTHEAST WISCONSIN

CITY           SKY/WX    TMP DP  RH WIND       PRES   REMARKS
ANTIGO         CLOUDY    57  53  87 CALM      30.20S
SHAWANO        CLOUDY    65  58  76 N3        30.17R
OCONTO         NOT AVBL
STURGEON BAY   MOCLDY    65  57  75 N8        30.15R
GREEN BAY      MOCLDY    61  61 100 NW5       30.15R
MANITOWOC      CLOUDY    62  57  83 CALM      30.14S
APPLETON       MOCLDY    64  54  68 N7        30.14R
CLINTONVILLE   CLOUDY    64  54  68 CALM      30.16R
OSHKOSH        MOCLDY    68  55  63 E7        30.14R
$$

WIZ032>034-041-042-053>061-010400-
SOUTHWEST WISCONSIN

CITY           SKY/WX    TMP DP  RH WIND       PRES   REMARKS
LA CROSSE      CLEAR     65  60  84 N5        30.16R
SPARTA         CLEAR     55  55  97 CALM      30.18R
VIROQUA        CLEAR     61  57  86 N3        30.17S
BOSCOBEL       CLEAR     61  59  93 CALM      30.15R
PRAIRIE DU CHI CLEAR     63  58  86 CALM      30.15R
PLATTEVILLE    CLEAR     63  60  91 N3        30.14F
$$

WIZ056-057-062-063-064-067-068-010400-
SOUTH CENTRAL WISCONSIN

CITY           SKY/WX    TMP DP  RH WIND       PRES   REMARKS
REEDSBURG      NOT AVBL
BARABOO/DELLS  CLEAR     60  55  84 CALM      30.14S
LONE ROCK      CLEAR     61  58  90 SW3       30.14S
MINERAL POINT  CLEAR     63  59  88 N5        30.14F
MADISON        PTCLDY    61  58  90 CALM      30.13R
MIDDLETON      PTCLDY    62  62  98 CALM      30.14S
WATERTOWN      CLEAR     61  58  92 CALM      30.13R
MONROE         CLEAR     66  54  63 N5        30.13S
JANESVILLE     NOT AVBL
$$

WIZ051-052-058>065-066-070>072-010400-
SOUTHEAST WISCONSIN

CITY           SKY/WX    TMP DP  RH WIND       PRES   REMARKS
MILWAUKEE      PTCLDY    66  58  75 N5        30.12S
WAUKESHA       CLEAR     57  52  82 CALM      30.15R
MILWAUKEE/TIMM CLEAR     63  52  67 N3        30.14R
RACINE         CLEAR     64  57  78 N5        30.12F
BURLINGTON     CLEAR     55  55  97 CALM      30.12F
KENOSHA        CLEAR     62  55  77 N6        30.11F
FOND DU LAC    CLEAR     63  54  72 SE3       30.14R
SHEBOYGAN      CLEAR     58  54  86 N3        30.14R
WEST BEND      CLEAR     59  54  82 CALM      30.14S
JUNEAU         CLEAR     60  57  89 CALM      30.15R
$$

LSZ147-162-010400-
LAKE SUPERIOR

STATION/POSITION TIME  TEMP    WIND        PRES    WAVE
                       AIR SEA DIR/SP/G            HT/PER
                 (UTC) (F)     (DEG/KT/KT) (MB)    (FT/S)
W MID LAKE BUOY  0250   67 68  360/ 12/ 16 1022.3R   0
DEVILS ISLAND    0300   67     350/  4/  5 1023.2R
PORT WING        0200   64     160/  2/  2 1023.0R
SAXON HARBOR     0140   61     170/  2/  3 1022.4R
$$

LMZ867-665-643>646-010400-
LAKE MICHIGAN

STATION/POSITION TIME  TEMP    WIND        PRES    WAVE
                       AIR SEA DIR/SP/G            HT/PER
                 (UTC) (F)     (DEG/KT/KT) (MB)    (FT/S)
CHAMBERS ISLAND  0200   68     350/ 15/ 19 1020.3R
S GREEN BAY BUOY 0100   70 72   50/ 14/ 17 1019.2
N MID LAKE BUOY  0250   65 71  340/ 19/ 21 1019.3R   3/ 5
NORTHPORT PIER   0200   67     350/ 15/ 18 1020.3R
SISTER BAY       0107   68     350/ 17/ 20   N/A
KEWAUNEE LAKESHO 0200   64                 1019.7R
SHEBOYGAN LAKESH 0300   66     350/  7/  8 1019.9R
PORT WASHINGTON  0240   66     320/  4/  5 1020.7R
ATWATER BUOY     0200   65 65  340/  4/  6   N/A
MILWAUKEE LAKESH 0210   67     330/  3/  4   N/A
S MID LAKE BUOY  0250   71 74   30/ 17/ 21 1018.0R   5/ 6
KENOSHA   LAKESH 0300   67     350/  7/ 11 1019.0F
$$

TC  - TEMPERATURE IN CELSIUS
VSB - VISIBILITY IN STATUTE MILES
WCI - WIND CHILL INDEX
HX  - HEAT INDEX





USA.gov is the U.S. government's official web portal to all federal, state and local government web resources and services.